Regional Weather Roundup
Issued by NWS Northern Indiana

Home | Current Version | Previous Version | Text Only | Print | Product List | Glossary On
Versions: 1 2 3 4 5 6 7 8 9 10 11 12 13 14 15 16 17 18 19 20 21 22 23 24 25 26 27 28 29 30 31 32 33 34 35 36 37 38 39 40 41 42 43 44 45 46 47 48 49 50
000
ASUS43 KIWX 290010
RWRIWX

KIWX WEATHER ROUNDUP
NATIONAL WEATHER SERVICE NORTHERN INDIANA
700 PM EST FRI NOV 28 2014

NOTE: "FAIR" INDICATES FEW OR NO CLOUDS BELOW 12,000 FEET WITH NO
SIGNIFICANT WEATHER AND/OR OBSTRUCTIONS TO VISIBILITY.

* THESE STATIONS ARE NOT UNDER NWS QUALITY CONTROL. THEY ALSO MAY NOT
  REPORT WEATHER SUCH AS PRECIPITATION OR FOG.

INZ001>027-290100-
NORTHERN INDIANA

CITY           SKY/WX    TMP DP  RH WIND       PRES   REMARKS
GARY*          CLOUDY    32  25  74 SE14      30.01F WCI  22
VALPARAISO     CLOUDY    30  21  69 SE13      30.02F WCI  20
6HR MIN TEMP:  28; 6HR MAX TEMP:  30;

MICHIGAN CITY* CLOUDY    30  19  64 S10G18    30.03S WCI  21
LAPORTE*       CLOUDY    31  23  71 S7        30.04F WCI  24
6HR MIN TEMP:  30; 6HR MAX TEMP:  32;

KNOX*          CLOUDY    30  21  70 S13       30.04F WCI  20
6HR MIN TEMP:   9; 6HR MAX TEMP:  81;

SOUTH BEND     MOCLDY    29  20  69 S10       30.06R WCI  20
6HR MIN TEMP:  26; 6HR MAX TEMP:  29;

GOSHEN         MOCLDY    29  19  66 S14       30.06S WCI  18
6HR MIN TEMP:  25; 6HR MAX TEMP:  29;

MONTICELLO*    PTCLDY    32  23  71 S6        30.05S WCI  26
6HR MIN TEMP:  28; 6HR MAX TEMP:  32;

LOGANSPORT*    MOCLDY    30  23  74 S12       30.07F WCI  21
ROCHESTER*     CLOUDY    32  25  74 S10       30.07S WCI  24
WARSAW*        CLOUDY    30  19  64 S5        30.07S WCI  25
ANGOLA*        CLOUDY    27  19  74 S9        30.06F WCI  17
FORT WAYNE     CLOUDY    29  21  72 S8        30.11R WCI  21
6HR MIN TEMP:  28; 6HR MAX TEMP:  31; 6HR PCP: TRACE;

HUNTINGTON*    CLOUDY    30  20  65 S7        30.09S WCI  23
6HR MIN TEMP:  28; 6HR MAX TEMP:  31;

PERU/GRISSOM   MOCLDY    30  25  79 S13       30.06S WCI  20
6HR MIN TEMP:  30; 6HR MAX TEMP:  31;

MARION*          N/A     30  20  65 S10       30.10R WCI  21
6HR MIN TEMP:   7; 6HR MAX TEMP:  64;


$$
INZ028>050-290100-
CENTRAL INDIANA

CITY           SKY/WX    TMP DP  RH WIND       PRES   REMARKS
LAFAYETTE      PTCLDY    32  24  72 SE8       30.06R WCI  25
6HR MIN TEMP:  29; 6HR MAX TEMP:  33;

KOKOMO*        MOCLDY    30  21  69 S13       30.08R WCI  20
6HR MIN TEMP:  28; 6HR MAX TEMP:  30;

MUNCIE*        MOCLDY    31  18  58 S13       30.09R WCI  21
6HR MIN TEMP:  29; 6HR MAX TEMP:  32;

INDIANAPOLIS   CLOUDY    32  22  66 S13       30.07S WCI  22
6HR MIN TEMP:  29; 6HR MAX TEMP:  34;


$$
MIZ043>046-050>051-056>058-064>065-071>073-077>080-290100-
SOUTHWEST LOWER MICHIGAN

CITY           SKY/WX    TMP DP  RH WIND       PRES   REMARKS
BATTLE CREEK   CLOUDY    28  19  69 SE9       30.06F WCI  19
6HR MIN TEMP:  25; 6HR MAX TEMP:  28; 6HR PCP: TRACE;

BENTON HARBOR  CLOUDY    27  20  75 SE8       30.04S WCI  19
6HR MIN TEMP:  24; 6HR MAX TEMP:  27;

COLDWATER*     CLOUDY    29  22  73 SE10      30.06F WCI  20
6HR MIN TEMP:  26; 6HR MAX TEMP:  29;

HILLSDALE*     CLOUDY    26  23  86 S9        30.07F WCI  17
HOLLAND        CLOUDY    28  19  69 SE12      30.05R WCI  18
6HR MIN TEMP:  25; 6HR MAX TEMP:  28;

GRAND RAPIDS   CLOUDY    26  19  74 SE10      30.06R WCI  16
6HR MIN TEMP:  24; 6HR MAX TEMP:  26; 6HR PCP: TRACE;

KALAMAZOO      CLOUDY    28  19  69 S9        30.06S WCI  19
6HR MIN TEMP:  24; 6HR MAX TEMP:  28; 6HR PCP: TRACE;

STURGIS*       MOCLDY    27  21  80 SE8       30.05F WCI  18
THREE RIVERS*  CLOUDY    28  20  71 S8        30.07S WCI  20

$$
OHZ001>008-015>018-024>025-290100-
NORTHWEST OHIO

CITY           SKY/WX    TMP DP  RH WIND       PRES   REMARKS
WAUSEON*       CLOUDY    27  23  86 SE10      30.12F WCI  17
DEFIANCE       MOCLDY    30  21  69 S7        30.12F WCI  23
6HR MIN TEMP:  26; 6HR MAX TEMP:  30; 6HR PCP: TRACE;

FINDLAY        MOCLDY    31  21  66 S12       30.13F WCI  22
6HR MIN TEMP:  28; 6HR MAX TEMP:  31; 6HR PCP: TRACE;

TOLEDO EXPRESS CLOUDY    27  21  78 VRB3      30.14F
6HR MIN TEMP:  25; 6HR MAX TEMP:  28; 6HR PCP:  0.01;

TOLEDO METCALF CLOUDY    28  22  78 SE10      30.16F WCI  19
6HR MIN TEMP:  27; 6HR MAX TEMP:  28; 6HR PCP: TRACE;

LIMA           CLOUDY    32  20  61 S15       30.12F WCI  22
6HR MIN TEMP:  29; 6HR MAX TEMP:  32;


$$
AND FOR LAKE MICHIGAN COASTAL AND OPEN LAKE BUOY OBSERVATIONS

STATION/POSITION TEMP    WIND        PRES    VSBY  WAVE
                 AIR SEA DIR/SP/G                  HT/PER
                 (F)     (DEG/KT/KT) (MB)    (MI)  (FT/S)
CALUMET HARBOR    32     140/  9/ 12 1014.8F
MICHIGAN CITY     30     130/ 14/ 18   N/A
SAINT JOSEPH      29     150/  3/ 10 1017.9R
SOUTH LAKE BUOY   35 42  180/ 21/ 25 1016.3F         5/ 6

$$
&&


USA.gov is the U.S. government's official web portal to all federal, state and local government web resources and services.